Weather History for Baker, MT

Change the Weather History Date:

Thursday, April 4, 2013

  Actual Average Record
Temperature  
Mean Temperature 39 °F -  
Max Temperature 50 °F 40 °F 70 °F (2004)
Min Temperature 28 °F 32 °F 9 °F (2014)
Degree Days  
Heating Degree Days 26    
Moisture  
Dew Point 24 °F    
Average Humidity 67    
Maximum Humidity 86    
Minimum Humidity 39    
Precipitation  
Precipitation 0.01 in - - ()
Sea Level Pressure  
Sea Level Pressure 30.16 in    
Wind  
Wind Speed 10 mph (East)    
Max Wind Speed 25 mph    
Max Gust Speed 32 mph    
Visibility 8 miles    
Events Snow    
Averages and records for this station are not official NWS values.
T = Trace of Precipitation, MM = Missing Value Source: NWS Daily Summary

Daily Weather History Graph

Daily Weather History Graph

Search for Another Location

Airport:

Trip Planner

Search our weather history database for the weather conditions in past years. The results will help you decide how hot, cold, wet, or windy it might be!

Date:

Astronomy

Apr. 04, 2013 Rise Set
Actual Time 6:30 AM MDT 7:30 PM MDT
Civil Twilight 5:59 AM MDT 8:01 PM MDT
Nautical Twilight 5:23 AM MDT 8:37 PM MDT
Astronomical Twilight 4:44 AM MDT 9:16 PM MDT
Moon 3:18 AM MDT (4/4) 1:33 PM MDT (4/4)
Length of Visible Light 14h 01m
Length of Day
13h 00m
Waning Crescent, 33% of the Moon is Illuminated
Apr 4
Waning Crescent
Apr 10
New
Apr 18
First Quarter
Apr 25
Full
May 2
Last Quarter

Hourly Weather History & Observations

Time (MDT) Temp. Windchill Dew Point Humidity Pressure Visibility Wind Dir Wind Speed Gust Speed Precip Events Conditions
12:51 AM 33.1 °F - 21.0 °F 61% 30.16 in 10.0 mi Calm Calm - N/A   Mostly Cloudy
1:51 AM 30.9 °F 27.5 °F 21.9 °F 69% 30.17 in 10.0 mi West 3.5 mph - N/A   Mostly Cloudy
3:51 AM 32.0 °F - 23.0 °F 69% 30.21 in 10.0 mi Calm Calm - N/A   Overcast
4:21 AM 30.2 °F 23.4 °F 24.8 °F 80% 30.18 in 2.5 mi SSW 6.9 mph - 0.00 in Snow Light Snow
4:27 AM 30.2 °F 24.3 °F 24.8 °F 80% 30.17 in 1.2 mi South 5.8 mph - 0.00 in Snow Light Snow
4:51 AM 30.0 °F 23.2 °F 25.0 °F 82% 30.22 in 2.0 mi ENE 6.9 mph - 0.01 in Snow Light Snow
4:58 AM 30.2 °F 22.6 °F 24.8 °F 80% 30.17 in 4.0 mi ENE 8.1 mph - 0.00 in Snow Light Snow
5:25 AM 30.2 °F 18.5 °F 24.8 °F 80% 30.16 in 2.0 mi NE 17.3 mph - 0.01 in Snow Light Snow
5:33 AM 30.2 °F 19.8 °F 24.8 °F 80% 30.18 in 1.8 mi NE 13.8 mph - 0.01 in Snow Light Snow
5:41 AM 28.4 °F 19.1 °F 24.8 °F 86% 30.18 in 2.5 mi NE 10.4 mph - 0.01 in Snow Light Snow
5:46 AM 28.4 °F 19.1 °F 24.8 °F 86% 30.18 in 5.0 mi NE 10.4 mph - 0.01 in Snow Light Snow
6:00 AM 28.4 °F 19.7 °F 23.0 °F 80% 30.18 in 10.0 mi ENE 9.2 mph - N/A   Overcast
6:08 AM 28.4 °F 20.4 °F 23.0 °F 80% 30.19 in 10.0 mi ENE 8.1 mph - N/A   Overcast
6:15 AM 30.2 °F 20.8 °F 23.0 °F 75% 30.18 in 10.0 mi NE 11.5 mph - N/A   Overcast
6:23 AM 30.2 °F 21.9 °F 21.2 °F 69% 30.19 in 10.0 mi NE 9.2 mph - N/A   Overcast
6:51 AM 28.0 °F 17.0 °F 21.9 °F 78% 30.24 in 3.0 mi ENE 13.8 mph - 0.00 in Snow Light Snow
6:56 AM 28.4 °F 17.0 °F 21.2 °F 74% 30.18 in 1.8 mi ENE 15.0 mph - 0.00 in Snow Light Snow
7:06 AM 28.4 °F 17.5 °F 21.2 °F 74% 30.18 in 3.0 mi East 13.8 mph - 0.00 in Snow Light Snow
7:20 AM 28.4 °F 18.0 °F 21.2 °F 74% 30.17 in 10.0 mi East 12.7 mph - 0.00 in   Overcast
7:51 AM 28.9 °F 19.8 °F 21.9 °F 75% 30.25 in 10.0 mi East 10.4 mph - 0.00 in   Scattered Clouds
8:01 AM 28.4 °F 18.5 °F 21.2 °F 74% 30.17 in 10.0 mi East 11.5 mph - N/A   Mostly Cloudy
8:18 AM 28.4 °F 18.0 °F 21.2 °F 74% 30.17 in 10.0 mi East 12.7 mph - N/A   Scattered Clouds
8:51 AM 32.0 °F 22.1 °F 23.0 °F 69% 30.24 in 10.0 mi East 13.8 mph - N/A   Scattered Clouds
9:51 AM 32.0 °F 22.1 °F 24.1 °F 73% 30.26 in 10.0 mi East 13.8 mph - N/A   Overcast
10:51 AM 34.0 °F 24.6 °F 26.1 °F 73% 30.26 in 10.0 mi ESE 13.8 mph - 0.00 in   Overcast
11:51 AM 39.0 °F 30.6 °F 28.0 °F 65% 30.22 in 10.0 mi SE 15.0 mph - N/A   Mostly Cloudy
12:17 PM 41.0 °F 33.1 °F 28.4 °F 61% 30.15 in 10.0 mi ESE 15.0 mph - N/A   Overcast
12:49 PM 42.8 °F 35.8 °F 28.4 °F 57% 30.14 in 10.0 mi ESE 13.8 mph 21.9 mph N/A   Scattered Clouds
12:51 PM 43.0 °F 35.4 °F 28.9 °F 58% 30.20 in 10.0 mi ESE 16.1 mph 21.9 mph N/A   Scattered Clouds
1:51 PM 45.0 °F 38.9 °F 28.0 °F 52% 30.18 in 10.0 mi ESE 12.7 mph 19.6 mph N/A   Scattered Clouds
2:51 PM 48.0 °F - 28.0 °F 46% 30.14 in 10.0 mi ESE 13.8 mph - N/A   Mostly Cloudy
3:51 PM 50.0 °F - 27.0 °F 41% 30.11 in 10.0 mi ESE 19.6 mph 26.5 mph N/A   Partly Cloudy
4:51 PM 48.9 °F - 26.1 °F 41% 30.09 in 10.0 mi ESE 16.1 mph 25.3 mph N/A   Clear
5:51 PM 48.9 °F - 25.0 °F 39% 30.08 in 10.0 mi ESE 16.1 mph 23.0 mph N/A   Clear
6:51 PM 45.0 °F 37.6 °F 26.1 °F 48% 30.08 in 10.0 mi East 17.3 mph - N/A   Clear
7:51 PM 42.1 °F 33.3 °F 27.0 °F 55% 30.06 in 10.0 mi ESE 19.6 mph - N/A   Clear
8:51 PM 39.9 °F 30.8 °F 26.1 °F 58% 30.06 in 10.0 mi ESE 18.4 mph - N/A   Overcast
9:51 PM 39.0 °F 28.8 °F 25.0 °F 57% 30.04 in 10.0 mi ESE 21.9 mph - N/A   Overcast
10:51 PM 37.9 °F 27.3 °F 25.0 °F 60% 30.02 in 10.0 mi ESE 21.9 mph 29.9 mph N/A   Mostly Cloudy
11:51 PM 37.0 °F 25.4 °F 24.1 °F 59% 29.98 in 10.0 mi SE 25.3 mph 32.2 mph N/A   Overcast